Zurück zum Katalog

USA 40 R/B DEB

LostHEO
NORAD 23379·DEBRIS·🇺🇸 United States

Gestartet Aug 8, 1989 von Cape Canaveral Space Force Station

Loading…

Nächste Überflüge (nächste 24 Stunden)

TLE

VeraltetSource: Space-Track

Epoche: Jun 18, 2026, 09:34 UTC

1 23379U 89061BB  26169.39893908  .00007296  00000-0  53476-2 0  9992
2 23379  56.8720 280.7502 2979824 244.9483  81.4526  8.92867857232545

Verfolge USA 40 R/B DEB in Echtzeit mit AllMySat

Download on the App Store